Data supplied by UK-AIR on 13/3/2021
All Data GMT hour ending 
Status: R =Ratified P=Provisional,P*=As supplied
,,London Teddington Bushy Park,,,,,,,,,,,,,,,,,,,,,,,
Date,time,"PM<sub>10</sub> particulate matter (Hourly measured)",status,unit,"PM<sub>2.5</sub> particulate matter (Hourly measured)",status,unit
 
01-01-2020,01:00,,,,,,
01-01-2020,02:00,52.275,R,ugm-3 (FIDAS),45.495,R,ugm-3 (Ref.eq)
01-01-2020,03:00,53.500,R,ugm-3 (FIDAS),46.321,R,ugm-3 (Ref.eq)
01-01-2020,04:00,48.200,R,ugm-3 (FIDAS),42.382,R,ugm-3 (Ref.eq)
01-01-2020,05:00,43.325,R,ugm-3 (FIDAS),38.585,R,ugm-3 (Ref.eq)
01-01-2020,06:00,43.100,R,ugm-3 (FIDAS),38.326,R,ugm-3 (Ref.eq)
01-01-2020,07:00,41.150,R,ugm-3 (FIDAS),36.793,R,ugm-3 (Ref.eq)
01-01-2020,08:00,40.725,R,ugm-3 (FIDAS),36.321,R,ugm-3 (Ref.eq)
01-01-2020,09:00,38.225,R,ugm-3 (FIDAS),34.458,R,ugm-3 (Ref.eq)
01-01-2020,10:00,41.075,R,ugm-3 (FIDAS),36.604,R,ugm-3 (Ref.eq)
01-01-2020,11:00,41.225,R,ugm-3 (FIDAS),36.863,R,ugm-3 (Ref.eq)
01-01-2020,12:00,40.375,R,ugm-3 (FIDAS),36.156,R,ugm-3 (Ref.eq)
01-01-2020,13:00,37.975,R,ugm-3 (FIDAS),33.703,R,ugm-3 (Ref.eq)
01-01-2020,14:00,36.200,R,ugm-3 (FIDAS),31.958,R,ugm-3 (Ref.eq)
01-01-2020,15:00,35.775,R,ugm-3 (FIDAS),31.392,R,ugm-3 (Ref.eq)
01-01-2020,16:00,24.800,R,ugm-3 (FIDAS),21.934,R,ugm-3 (Ref.eq)
01-01-2020,17:00,33.175,R,ugm-3 (FIDAS),29.010,R,ugm-3 (Ref.eq)
01-01-2020,18:00,33.200,R,ugm-3 (FIDAS),29.293,R,ugm-3 (Ref.eq)
01-01-2020,19:00,26.725,R,ugm-3 (FIDAS),23.679,R,ugm-3 (Ref.eq)
01-01-2020,20:00,22.250,R,ugm-3 (FIDAS),19.505,R,ugm-3 (Ref.eq)
01-01-2020,21:00,23.750,R,ugm-3 (FIDAS),20.566,R,ugm-3 (Ref.eq)
01-01-2020,22:00,26.900,R,ugm-3 (FIDAS),24.127,R,ugm-3 (Ref.eq)
01-01-2020,23:00,27.125,R,ugm-3 (FIDAS),24.694,R,ugm-3 (Ref.eq)
01-01-2020,24:00,19.200,R,ugm-3 (FIDAS),17.689,R,ugm-3 (Ref.eq)
02-01-2020,01:00,15.250,R,ugm-3 (FIDAS),14.033,R,ugm-3 (Ref.eq)
02-01-2020,02:00,14.750,R,ugm-3 (FIDAS),13.373,R,ugm-3 (Ref.eq)
02-01-2020,03:00,12.925,R,ugm-3 (FIDAS),11.887,R,ugm-3 (Ref.eq)
02-01-2020,04:00,13.475,R,ugm-3 (FIDAS),12.382,R,ugm-3 (Ref.eq)
02-01-2020,05:00,13.975,R,ugm-3 (FIDAS),12.594,R,ugm-3 (Ref.eq)
02-01-2020,06:00,12.825,R,ugm-3 (FIDAS),11.627,R,ugm-3 (Ref.eq)
02-01-2020,07:00,9.700,R,ugm-3 (FIDAS),8.821,R,ugm-3 (Ref.eq)
02-01-2020,08:00,7.925,R,ugm-3 (FIDAS),6.816,R,ugm-3 (Ref.eq)
02-01-2020,09:00,6.625,R,ugm-3 (FIDAS),5.613,R,ugm-3 (Ref.eq)
02-01-2020,10:00,4.000,R,ugm-3 (FIDAS),2.877,R,ugm-3 (Ref.eq)
02-01-2020,11:00,4.100,R,ugm-3 (FIDAS),2.382,R,ugm-3 (Ref.eq)
02-01-2020,12:00,4.525,R,ugm-3 (FIDAS),2.500,R,ugm-3 (Ref.eq)
02-01-2020,13:00,6.175,R,ugm-3 (FIDAS),3.491,R,ugm-3 (Ref.eq)
02-01-2020,14:00,9.500,R,ugm-3 (FIDAS),5.165,R,ugm-3 (Ref.eq)
02-01-2020,15:00,11.050,R,ugm-3 (FIDAS),5.189,R,ugm-3 (Ref.eq)
02-01-2020,16:00,11.650,R,ugm-3 (FIDAS),5.519,R,ugm-3 (Ref.eq)
02-01-2020,17:00,8.875,R,ugm-3 (FIDAS),4.552,R,ugm-3 (Ref.eq)
02-01-2020,18:00,6.525,R,ugm-3 (FIDAS),3.561,R,ugm-3 (Ref.eq)
02-01-2020,19:00,5.650,R,ugm-3 (FIDAS),3.160,R,ugm-3 (Ref.eq)
02-01-2020,20:00,6.750,R,ugm-3 (FIDAS),3.915,R,ugm-3 (Ref.eq)
02-01-2020,21:00,8.675,R,ugm-3 (FIDAS),4.859,R,ugm-3 (Ref.eq)
02-01-2020,22:00,8.925,R,ugm-3 (FIDAS),4.906,R,ugm-3 (Ref.eq)
02-01-2020,23:00,11.875,R,ugm-3 (FIDAS),6.509,R,ugm-3 (Ref.eq)
02-01-2020,24:00,10.450,R,ugm-3 (FIDAS),5.896,R,ugm-3 (Ref.eq)
03-01-2020,01:00,8.775,R,ugm-3 (FIDAS),5.755,R,ugm-3 (Ref.eq)
03-01-2020,02:00,6.750,R,ugm-3 (FIDAS),4.458,R,ugm-3 (Ref.eq)
03-01-2020,03:00,9.150,R,ugm-3 (FIDAS),5.401,R,ugm-3 (Ref.eq)
03-01-2020,04:00,3.500,R,ugm-3 (FIDAS),2.099,R,ugm-3 (Ref.eq)
03-01-2020,05:00,2.300,R,ugm-3 (FIDAS),1.297,R,ugm-3 (Ref.eq)
03-01-2020,06:00,1.850,R,ugm-3 (FIDAS),0.920,R,ugm-3 (Ref.eq)
03-01-2020,07:00,1.725,R,ugm-3 (FIDAS),0.991,R,ugm-3 (Ref.eq)
03-01-2020,08:00,3.325,R,ugm-3 (FIDAS),1.981,R,ugm-3 (Ref.eq)
03-01-2020,09:00,5.000,R,ugm-3 (FIDAS),2.642,R,ugm-3 (Ref.eq)
03-01-2020,10:00,4.150,R,ugm-3 (FIDAS),2.264,R,ugm-3 (Ref.eq)
03-01-2020,11:00,9.950,R,ugm-3 (FIDAS),5.495,R,ugm-3 (Ref.eq)
03-01-2020,12:00,9.925,R,ugm-3 (FIDAS),5.542,R,ugm-3 (Ref.eq)
03-01-2020,13:00,8.525,R,ugm-3 (FIDAS),4.811,R,ugm-3 (Ref.eq)
03-01-2020,14:00,9.325,R,ugm-3 (FIDAS),5.000,R,ugm-3 (Ref.eq)
03-01-2020,15:00,11.300,R,ugm-3 (FIDAS),5.943,R,ugm-3 (Ref.eq)
03-01-2020,16:00,11.450,R,ugm-3 (FIDAS),6.014,R,ugm-3 (Ref.eq)
03-01-2020,17:00,13.500,R,ugm-3 (FIDAS),7.311,R,ugm-3 (Ref.eq)
03-01-2020,18:00,15.275,R,ugm-3 (FIDAS),8.939,R,ugm-3 (Ref.eq)
03-01-2020,19:00,16.075,R,ugm-3 (FIDAS),10.259,R,ugm-3 (Ref.eq)
03-01-2020,20:00,13.625,R,ugm-3 (FIDAS),8.396,R,ugm-3 (Ref.eq)
03-01-2020,21:00,13.825,R,ugm-3 (FIDAS),8.278,R,ugm-3 (Ref.eq)
03-01-2020,22:00,14.075,R,ugm-3 (FIDAS),9.009,R,ugm-3 (Ref.eq)
03-01-2020,23:00,12.250,R,ugm-3 (FIDAS),7.453,R,ugm-3 (Ref.eq)
03-01-2020,24:00,10.875,R,ugm-3 (FIDAS),6.745,R,ugm-3 (Ref.eq)
04-01-2020,01:00,11.975,R,ugm-3 (FIDAS),8.231,R,ugm-3 (Ref.eq)
04-01-2020,02:00,10.625,R,ugm-3 (FIDAS),6.651,R,ugm-3 (Ref.eq)
04-01-2020,03:00,10.075,R,ugm-3 (FIDAS),6.627,R,ugm-3 (Ref.eq)
04-01-2020,04:00,10.325,R,ugm-3 (FIDAS),6.509,R,ugm-3 (Ref.eq)
04-01-2020,05:00,9.350,R,ugm-3 (FIDAS),5.755,R,ugm-3 (Ref.eq)
04-01-2020,06:00,8.950,R,ugm-3 (FIDAS),5.212,R,ugm-3 (Ref.eq)
04-01-2020,07:00,8.750,R,ugm-3 (FIDAS),5.142,R,ugm-3 (Ref.eq)
04-01-2020,08:00,8.750,R,ugm-3 (FIDAS),4.788,R,ugm-3 (Ref.eq)
04-01-2020,09:00,7.900,R,ugm-3 (FIDAS),4.458,R,ugm-3 (Ref.eq)
04-01-2020,10:00,8.450,R,ugm-3 (FIDAS),4.481,R,ugm-3 (Ref.eq)
04-01-2020,11:00,8.000,R,ugm-3 (FIDAS),4.552,R,ugm-3 (Ref.eq)
04-01-2020,12:00,7.500,R,ugm-3 (FIDAS),3.844,R,ugm-3 (Ref.eq)
04-01-2020,13:00,7.600,R,ugm-3 (FIDAS),3.585,R,ugm-3 (Ref.eq)
04-01-2020,14:00,5.900,R,ugm-3 (FIDAS),3.255,R,ugm-3 (Ref.eq)
04-01-2020,15:00,4.500,R,ugm-3 (FIDAS),2.382,R,ugm-3 (Ref.eq)
04-01-2020,16:00,4.175,R,ugm-3 (FIDAS),2.453,R,ugm-3 (Ref.eq)
04-01-2020,17:00,6.125,R,ugm-3 (FIDAS),3.514,R,ugm-3 (Ref.eq)
04-01-2020,18:00,8.975,R,ugm-3 (FIDAS),6.415,R,ugm-3 (Ref.eq)
04-01-2020,19:00,12.325,R,ugm-3 (FIDAS),8.962,R,ugm-3 (Ref.eq)
04-01-2020,20:00,16.125,R,ugm-3 (FIDAS),12.736,R,ugm-3 (Ref.eq)
04-01-2020,21:00,15.200,R,ugm-3 (FIDAS),11.934,R,ugm-3 (Ref.eq)
04-01-2020,22:00,19.175,R,ugm-3 (FIDAS),15.660,R,ugm-3 (Ref.eq)
04-01-2020,23:00,19.125,R,ugm-3 (FIDAS),15.873,R,ugm-3 (Ref.eq)
04-01-2020,24:00,14.300,R,ugm-3 (FIDAS),11.675,R,ugm-3 (Ref.eq)
05-01-2020,01:00,12.350,R,ugm-3 (FIDAS),10.283,R,ugm-3 (Ref.eq)
05-01-2020,02:00,8.525,R,ugm-3 (FIDAS),7.052,R,ugm-3 (Ref.eq)
05-01-2020,03:00,5.600,R,ugm-3 (FIDAS),4.481,R,ugm-3 (Ref.eq)
05-01-2020,04:00,4.175,R,ugm-3 (FIDAS),3.255,R,ugm-3 (Ref.eq)
05-01-2020,05:00,2.950,R,ugm-3 (FIDAS),2.241,R,ugm-3 (Ref.eq)
05-01-2020,06:00,2.625,R,ugm-3 (FIDAS),2.052,R,ugm-3 (Ref.eq)
05-01-2020,07:00,2.425,R,ugm-3 (FIDAS),1.722,R,ugm-3 (Ref.eq)
05-01-2020,08:00,2.250,R,ugm-3 (FIDAS),1.439,R,ugm-3 (Ref.eq)
05-01-2020,09:00,2.975,R,ugm-3 (FIDAS),1.627,R,ugm-3 (Ref.eq)
05-01-2020,10:00,2.800,R,ugm-3 (FIDAS),1.580,R,ugm-3 (Ref.eq)
05-01-2020,11:00,2.625,R,ugm-3 (FIDAS),1.344,R,ugm-3 (Ref.eq)
05-01-2020,12:00,1.400,R,ugm-3 (FIDAS),0.684,R,ugm-3 (Ref.eq)
05-01-2020,13:00,2.050,R,ugm-3 (FIDAS),0.778,R,ugm-3 (Ref.eq)
05-01-2020,14:00,2.200,R,ugm-3 (FIDAS),1.061,R,ugm-3 (Ref.eq)
05-01-2020,15:00,2.200,R,ugm-3 (FIDAS),1.321,R,ugm-3 (Ref.eq)
05-01-2020,16:00,3.500,R,ugm-3 (FIDAS),2.099,R,ugm-3 (Ref.eq)
05-01-2020,17:00,4.575,R,ugm-3 (FIDAS),3.066,R,ugm-3 (Ref.eq)
05-01-2020,18:00,5.350,R,ugm-3 (FIDAS),3.679,R,ugm-3 (Ref.eq)
05-01-2020,19:00,7.325,R,ugm-3 (FIDAS),5.377,R,ugm-3 (Ref.eq)
05-01-2020,20:00,8.875,R,ugm-3 (FIDAS),6.226,R,ugm-3 (Ref.eq)
05-01-2020,21:00,8.875,R,ugm-3 (FIDAS),6.321,R,ugm-3 (Ref.eq)
05-01-2020,22:00,7.450,R,ugm-3 (FIDAS),5.802,R,ugm-3 (Ref.eq)
05-01-2020,23:00,6.975,R,ugm-3 (FIDAS),4.670,R,ugm-3 (Ref.eq)
05-01-2020,24:00,8.700,R,ugm-3 (FIDAS),5.590,R,ugm-3 (Ref.eq)
06-01-2020,01:00,8.425,R,ugm-3 (FIDAS),5.212,R,ugm-3 (Ref.eq)
06-01-2020,02:00,7.275,R,ugm-3 (FIDAS),4.057,R,ugm-3 (Ref.eq)
06-01-2020,03:00,5.675,R,ugm-3 (FIDAS),3.561,R,ugm-3 (Ref.eq)
06-01-2020,04:00,6.225,R,ugm-3 (FIDAS),3.679,R,ugm-3 (Ref.eq)
06-01-2020,05:00,7.750,R,ugm-3 (FIDAS),4.788,R,ugm-3 (Ref.eq)
06-01-2020,06:00,9.075,R,ugm-3 (FIDAS),6.321,R,ugm-3 (Ref.eq)
06-01-2020,07:00,9.925,R,ugm-3 (FIDAS),6.769,R,ugm-3 (Ref.eq)
06-01-2020,08:00,10.075,R,ugm-3 (FIDAS),6.863,R,ugm-3 (Ref.eq)
06-01-2020,09:00,7.600,R,ugm-3 (FIDAS),5.094,R,ugm-3 (Ref.eq)
06-01-2020,10:00,6.950,R,ugm-3 (FIDAS),4.410,R,ugm-3 (Ref.eq)
06-01-2020,11:00,7.350,R,ugm-3 (FIDAS),4.316,R,ugm-3 (Ref.eq)
06-01-2020,12:00,8.175,R,ugm-3 (FIDAS),4.859,R,ugm-3 (Ref.eq)
06-01-2020,13:00,9.325,R,ugm-3 (FIDAS),5.566,R,ugm-3 (Ref.eq)
06-01-2020,14:00,10.700,R,ugm-3 (FIDAS),6.297,R,ugm-3 (Ref.eq)
06-01-2020,15:00,12.175,R,ugm-3 (FIDAS),7.571,R,ugm-3 (Ref.eq)
06-01-2020,16:00,12.225,R,ugm-3 (FIDAS),7.099,R,ugm-3 (Ref.eq)
06-01-2020,17:00,11.375,R,ugm-3 (FIDAS),8.137,R,ugm-3 (Ref.eq)
06-01-2020,18:00,7.075,R,ugm-3 (FIDAS),5.283,R,ugm-3 (Ref.eq)
06-01-2020,19:00,5.975,R,ugm-3 (FIDAS),4.670,R,ugm-3 (Ref.eq)
06-01-2020,20:00,5.925,R,ugm-3 (FIDAS),4.741,R,ugm-3 (Ref.eq)
06-01-2020,21:00,10.600,R,ugm-3 (FIDAS),6.840,R,ugm-3 (Ref.eq)
06-01-2020,22:00,17.425,R,ugm-3 (FIDAS),10.212,R,ugm-3 (Ref.eq)
06-01-2020,23:00,13.275,R,ugm-3 (FIDAS),8.302,R,ugm-3 (Ref.eq)
06-01-2020,24:00,11.975,R,ugm-3 (FIDAS),7.382,R,ugm-3 (Ref.eq)
07-01-2020,01:00,12.425,R,ugm-3 (FIDAS),7.759,R,ugm-3 (Ref.eq)
07-01-2020,02:00,10.850,R,ugm-3 (FIDAS),7.146,R,ugm-3 (Ref.eq)
07-01-2020,03:00,14.300,R,ugm-3 (FIDAS),8.892,R,ugm-3 (Ref.eq)
07-01-2020,04:00,17.375,R,ugm-3 (FIDAS),10.283,R,ugm-3 (Ref.eq)
07-01-2020,05:00,14.300,R,ugm-3 (FIDAS),8.726,R,ugm-3 (Ref.eq)
07-01-2020,06:00,17.800,R,ugm-3 (FIDAS),9.976,R,ugm-3 (Ref.eq)
07-01-2020,07:00,18.800,R,ugm-3 (FIDAS),10.613,R,ugm-3 (Ref.eq)
07-01-2020,08:00,18.850,R,ugm-3 (FIDAS),10.967,R,ugm-3 (Ref.eq)
07-01-2020,09:00,20.250,R,ugm-3 (FIDAS),11.439,R,ugm-3 (Ref.eq)
07-01-2020,10:00,22.225,R,ugm-3 (FIDAS),12.359,R,ugm-3 (Ref.eq)
07-01-2020,11:00,20.225,R,ugm-3 (FIDAS),12.005,R,ugm-3 (Ref.eq)
07-01-2020,12:00,19.975,R,ugm-3 (FIDAS),12.217,R,ugm-3 (Ref.eq)
07-01-2020,13:00,18.725,R,ugm-3 (FIDAS),11.439,R,ugm-3 (Ref.eq)
07-01-2020,14:00,17.875,R,ugm-3 (FIDAS),11.014,R,ugm-3 (Ref.eq)
07-01-2020,15:00,14.125,R,ugm-3 (FIDAS),9.104,R,ugm-3 (Ref.eq)
07-01-2020,16:00,6.925,R,ugm-3 (FIDAS),5.283,R,ugm-3 (Ref.eq)
07-01-2020,17:00,2.950,R,ugm-3 (FIDAS),1.840,R,ugm-3 (Ref.eq)
07-01-2020,18:00,2.025,R,ugm-3 (FIDAS),1.321,R,ugm-3 (Ref.eq)
07-01-2020,19:00,1.425,R,ugm-3 (FIDAS),1.085,R,ugm-3 (Ref.eq)
07-01-2020,20:00,2.050,R,ugm-3 (FIDAS),1.321,R,ugm-3 (Ref.eq)
07-01-2020,21:00,2.850,R,ugm-3 (FIDAS),2.005,R,ugm-3 (Ref.eq)
07-01-2020,22:00,2.075,R,ugm-3 (FIDAS),1.533,R,ugm-3 (Ref.eq)
07-01-2020,23:00,2.225,R,ugm-3 (FIDAS),1.392,R,ugm-3 (Ref.eq)
07-01-2020,24:00,1.950,R,ugm-3 (FIDAS),1.415,R,ugm-3 (Ref.eq)
08-01-2020,01:00,2.150,R,ugm-3 (FIDAS),1.486,R,ugm-3 (Ref.eq)
08-01-2020,02:00,1.700,R,ugm-3 (FIDAS),1.061,R,ugm-3 (Ref.eq)
08-01-2020,03:00,1.650,R,ugm-3 (FIDAS),1.085,R,ugm-3 (Ref.eq)
08-01-2020,04:00,2.050,R,ugm-3 (FIDAS),1.226,R,ugm-3 (Ref.eq)
08-01-2020,05:00,1.700,R,ugm-3 (FIDAS),0.943,R,ugm-3 (Ref.eq)
08-01-2020,06:00,1.725,R,ugm-3 (FIDAS),0.991,R,ugm-3 (Ref.eq)
08-01-2020,07:00,5.100,R,ugm-3 (FIDAS),2.925,R,ugm-3 (Ref.eq)
08-01-2020,08:00,11.800,R,ugm-3 (FIDAS),6.651,R,ugm-3 (Ref.eq)
08-01-2020,09:00,19.825,R,ugm-3 (FIDAS),10.472,R,ugm-3 (Ref.eq)
08-01-2020,10:00,19.900,R,ugm-3 (FIDAS),11.344,R,ugm-3 (Ref.eq)
08-01-2020,11:00,23.150,R,ugm-3 (FIDAS),12.311,R,ugm-3 (Ref.eq)
08-01-2020,12:00,26.500,R,ugm-3 (FIDAS),14.906,R,ugm-3 (Ref.eq)
08-01-2020,13:00,26.925,R,ugm-3 (FIDAS),15.354,R,ugm-3 (Ref.eq)
08-01-2020,14:00,27.150,R,ugm-3 (FIDAS),15.755,R,ugm-3 (Ref.eq)
08-01-2020,15:00,26.725,R,ugm-3 (FIDAS),15.943,R,ugm-3 (Ref.eq)
08-01-2020,16:00,26.300,R,ugm-3 (FIDAS),15.684,R,ugm-3 (Ref.eq)
08-01-2020,17:00,30.325,R,ugm-3 (FIDAS),19.835,R,ugm-3 (Ref.eq)
08-01-2020,18:00,31.700,R,ugm-3 (FIDAS),22.760,R,ugm-3 (Ref.eq)
08-01-2020,19:00,27.425,R,ugm-3 (FIDAS),18.632,R,ugm-3 (Ref.eq)
08-01-2020,20:00,25.125,R,ugm-3 (FIDAS),17.524,R,ugm-3 (Ref.eq)
08-01-2020,21:00,29.575,R,ugm-3 (FIDAS),21.392,R,ugm-3 (Ref.eq)
08-01-2020,22:00,22.050,R,ugm-3 (FIDAS),16.745,R,ugm-3 (Ref.eq)
08-01-2020,23:00,13.325,R,ugm-3 (FIDAS),10.071,R,ugm-3 (Ref.eq)
08-01-2020,24:00,4.800,R,ugm-3 (FIDAS),3.844,R,ugm-3 (Ref.eq)
09-01-2020,01:00,1.425,R,ugm-3 (FIDAS),0.778,R,ugm-3 (Ref.eq)
09-01-2020,02:00,1.150,R,ugm-3 (FIDAS),0.778,R,ugm-3 (Ref.eq)
09-01-2020,03:00,1.550,R,ugm-3 (FIDAS),0.708,R,ugm-3 (Ref.eq)
09-01-2020,04:00,2.450,R,ugm-3 (FIDAS),1.250,R,ugm-3 (Ref.eq)
09-01-2020,05:00,3.725,R,ugm-3 (FIDAS),1.675,R,ugm-3 (Ref.eq)
09-01-2020,06:00,1.925,R,ugm-3 (FIDAS),0.920,R,ugm-3 (Ref.eq)
09-01-2020,07:00,1.800,R,ugm-3 (FIDAS),0.825,R,ugm-3 (Ref.eq)
09-01-2020,08:00,2.825,R,ugm-3 (FIDAS),1.344,R,ugm-3 (Ref.eq)
09-01-2020,09:00,5.325,R,ugm-3 (FIDAS),2.972,R,ugm-3 (Ref.eq)
09-01-2020,10:00,7.100,R,ugm-3 (FIDAS),3.774,R,ugm-3 (Ref.eq)
09-01-2020,11:00,10.675,R,ugm-3 (FIDAS),5.967,R,ugm-3 (Ref.eq)
09-01-2020,12:00,13.550,R,ugm-3 (FIDAS),7.359,R,ugm-3 (Ref.eq)
09-01-2020,13:00,12.325,R,ugm-3 (FIDAS),6.698,R,ugm-3 (Ref.eq)
09-01-2020,14:00,9.900,R,ugm-3 (FIDAS),5.425,R,ugm-3 (Ref.eq)
09-01-2020,15:00,6.575,R,ugm-3 (FIDAS),3.750,R,ugm-3 (Ref.eq)
09-01-2020,16:00,3.375,R,ugm-3 (FIDAS),1.910,R,ugm-3 (Ref.eq)
09-01-2020,17:00,4.300,R,ugm-3 (FIDAS),2.264,R,ugm-3 (Ref.eq)
09-01-2020,18:00,8.100,R,ugm-3 (FIDAS),4.269,R,ugm-3 (Ref.eq)
09-01-2020,19:00,13.100,R,ugm-3 (FIDAS),6.297,R,ugm-3 (Ref.eq)
09-01-2020,20:00,16.900,R,ugm-3 (FIDAS),8.255,R,ugm-3 (Ref.eq)
09-01-2020,21:00,18.500,R,ugm-3 (FIDAS),8.774,R,ugm-3 (Ref.eq)
09-01-2020,22:00,8.175,R,ugm-3 (FIDAS),4.363,R,ugm-3 (Ref.eq)
09-01-2020,23:00,4.750,R,ugm-3 (FIDAS),3.892,R,ugm-3 (Ref.eq)
09-01-2020,24:00,7.150,R,ugm-3 (FIDAS),6.085,R,ugm-3 (Ref.eq)
10-01-2020,01:00,10.100,R,ugm-3 (FIDAS),8.868,R,ugm-3 (Ref.eq)
10-01-2020,02:00,11.150,R,ugm-3 (FIDAS),9.741,R,ugm-3 (Ref.eq)
10-01-2020,03:00,14.525,R,ugm-3 (FIDAS),12.453,R,ugm-3 (Ref.eq)
10-01-2020,04:00,9.325,R,ugm-3 (FIDAS),8.160,R,ugm-3 (Ref.eq)
10-01-2020,05:00,9.400,R,ugm-3 (FIDAS),8.208,R,ugm-3 (Ref.eq)
10-01-2020,06:00,11.475,R,ugm-3 (FIDAS),10.094,R,ugm-3 (Ref.eq)
10-01-2020,07:00,10.975,R,ugm-3 (FIDAS),9.151,R,ugm-3 (Ref.eq)
10-01-2020,08:00,4.700,R,ugm-3 (FIDAS),3.443,R,ugm-3 (Ref.eq)
10-01-2020,09:00,3.250,R,ugm-3 (FIDAS),1.722,R,ugm-3 (Ref.eq)
10-01-2020,10:00,2.600,R,ugm-3 (FIDAS),1.745,R,ugm-3 (Ref.eq)
10-01-2020,11:00,2.525,R,ugm-3 (FIDAS),1.580,R,ugm-3 (Ref.eq)
10-01-2020,12:00,3.375,R,ugm-3 (FIDAS),2.028,R,ugm-3 (Ref.eq)
10-01-2020,13:00,6.575,R,ugm-3 (FIDAS),4.741,R,ugm-3 (Ref.eq)
10-01-2020,14:00,7.050,R,ugm-3 (FIDAS),4.340,R,ugm-3 (Ref.eq)
10-01-2020,15:00,5.700,R,ugm-3 (FIDAS),3.679,R,ugm-3 (Ref.eq)
10-01-2020,16:00,4.850,R,ugm-3 (FIDAS),2.759,R,ugm-3 (Ref.eq)
10-01-2020,17:00,5.800,R,ugm-3 (FIDAS),3.420,R,ugm-3 (Ref.eq)
10-01-2020,18:00,9.400,R,ugm-3 (FIDAS),6.132,R,ugm-3 (Ref.eq)
10-01-2020,19:00,9.900,R,ugm-3 (FIDAS),7.217,R,ugm-3 (Ref.eq)
10-01-2020,20:00,12.300,R,ugm-3 (FIDAS),9.717,R,ugm-3 (Ref.eq)
10-01-2020,21:00,11.150,R,ugm-3 (FIDAS),8.774,R,ugm-3 (Ref.eq)
10-01-2020,22:00,8.375,R,ugm-3 (FIDAS),6.651,R,ugm-3 (Ref.eq)
10-01-2020,23:00,7.950,R,ugm-3 (FIDAS),5.991,R,ugm-3 (Ref.eq)
10-01-2020,24:00,6.750,R,ugm-3 (FIDAS),4.363,R,ugm-3 (Ref.eq)
11-01-2020,01:00,6.975,R,ugm-3 (FIDAS),4.222,R,ugm-3 (Ref.eq)
11-01-2020,02:00,8.800,R,ugm-3 (FIDAS),4.505,R,ugm-3 (Ref.eq)
11-01-2020,03:00,9.750,R,ugm-3 (FIDAS),4.906,R,ugm-3 (Ref.eq)
11-01-2020,04:00,12.050,R,ugm-3 (FIDAS),5.731,R,ugm-3 (Ref.eq)
11-01-2020,05:00,13.225,R,ugm-3 (FIDAS),6.297,R,ugm-3 (Ref.eq)
11-01-2020,06:00,14.275,R,ugm-3 (FIDAS),6.981,R,ugm-3 (Ref.eq)
11-01-2020,07:00,13.975,R,ugm-3 (FIDAS),6.840,R,ugm-3 (Ref.eq)
11-01-2020,08:00,12.425,R,ugm-3 (FIDAS),6.203,R,ugm-3 (Ref.eq)
11-01-2020,09:00,12.475,R,ugm-3 (FIDAS),6.132,R,ugm-3 (Ref.eq)
11-01-2020,10:00,11.625,R,ugm-3 (FIDAS),5.967,R,ugm-3 (Ref.eq)
11-01-2020,11:00,10.650,R,ugm-3 (FIDAS),5.542,R,ugm-3 (Ref.eq)
11-01-2020,12:00,7.600,R,ugm-3 (FIDAS),4.175,R,ugm-3 (Ref.eq)
11-01-2020,13:00,5.625,R,ugm-3 (FIDAS),3.632,R,ugm-3 (Ref.eq)
11-01-2020,14:00,6.375,R,ugm-3 (FIDAS),3.656,R,ugm-3 (Ref.eq)
11-01-2020,15:00,12.225,R,ugm-3 (FIDAS),6.392,R,ugm-3 (Ref.eq)
11-01-2020,16:00,13.475,R,ugm-3 (FIDAS),7.146,R,ugm-3 (Ref.eq)
11-01-2020,17:00,13.475,R,ugm-3 (FIDAS),7.500,R,ugm-3 (Ref.eq)
11-01-2020,18:00,15.075,R,ugm-3 (FIDAS),7.901,R,ugm-3 (Ref.eq)
11-01-2020,19:00,12.775,R,ugm-3 (FIDAS),7.170,R,ugm-3 (Ref.eq)
11-01-2020,20:00,11.725,R,ugm-3 (FIDAS),6.792,R,ugm-3 (Ref.eq)
11-01-2020,21:00,13.575,R,ugm-3 (FIDAS),7.500,R,ugm-3 (Ref.eq)
11-01-2020,22:00,13.025,R,ugm-3 (FIDAS),7.170,R,ugm-3 (Ref.eq)
11-01-2020,23:00,11.650,R,ugm-3 (FIDAS),6.627,R,ugm-3 (Ref.eq)
11-01-2020,24:00,12.450,R,ugm-3 (FIDAS),6.604,R,ugm-3 (Ref.eq)
12-01-2020,01:00,11.800,R,ugm-3 (FIDAS),6.109,R,ugm-3 (Ref.eq)
12-01-2020,02:00,10.825,R,ugm-3 (FIDAS),5.943,R,ugm-3 (Ref.eq)
12-01-2020,03:00,6.100,R,ugm-3 (FIDAS),3.821,R,ugm-3 (Ref.eq)
12-01-2020,04:00,3.900,R,ugm-3 (FIDAS),2.476,R,ugm-3 (Ref.eq)
12-01-2020,05:00,2.100,R,ugm-3 (FIDAS),1.439,R,ugm-3 (Ref.eq)
12-01-2020,06:00,1.450,R,ugm-3 (FIDAS),0.943,R,ugm-3 (Ref.eq)
12-01-2020,07:00,2.150,R,ugm-3 (FIDAS),1.321,R,ugm-3 (Ref.eq)
12-01-2020,08:00,2.000,R,ugm-3 (FIDAS),1.274,R,ugm-3 (Ref.eq)
12-01-2020,09:00,2.075,R,ugm-3 (FIDAS),1.203,R,ugm-3 (Ref.eq)
12-01-2020,10:00,2.875,R,ugm-3 (FIDAS),1.226,R,ugm-3 (Ref.eq)
12-01-2020,11:00,3.375,R,ugm-3 (FIDAS),1.651,R,ugm-3 (Ref.eq)
12-01-2020,12:00,4.525,R,ugm-3 (FIDAS),2.359,R,ugm-3 (Ref.eq)
12-01-2020,13:00,4.575,R,ugm-3 (FIDAS),2.476,R,ugm-3 (Ref.eq)
12-01-2020,14:00,4.625,R,ugm-3 (FIDAS),2.264,R,ugm-3 (Ref.eq)
12-01-2020,15:00,4.850,R,ugm-3 (FIDAS),2.217,R,ugm-3 (Ref.eq)
12-01-2020,16:00,4.200,R,ugm-3 (FIDAS),2.028,R,ugm-3 (Ref.eq)
12-01-2020,17:00,3.625,R,ugm-3 (FIDAS),1.887,R,ugm-3 (Ref.eq)
12-01-2020,18:00,4.425,R,ugm-3 (FIDAS),2.453,R,ugm-3 (Ref.eq)
12-01-2020,19:00,7.025,R,ugm-3 (FIDAS),4.575,R,ugm-3 (Ref.eq)
12-01-2020,20:00,8.125,R,ugm-3 (FIDAS),5.826,R,ugm-3 (Ref.eq)
12-01-2020,21:00,8.125,R,ugm-3 (FIDAS),5.401,R,ugm-3 (Ref.eq)
12-01-2020,22:00,8.050,R,ugm-3 (FIDAS),5.519,R,ugm-3 (Ref.eq)
12-01-2020,23:00,8.425,R,ugm-3 (FIDAS),5.637,R,ugm-3 (Ref.eq)
12-01-2020,24:00,9.975,R,ugm-3 (FIDAS),5.708,R,ugm-3 (Ref.eq)
13-01-2020,01:00,11.325,R,ugm-3 (FIDAS),6.038,R,ugm-3 (Ref.eq)
13-01-2020,02:00,13.475,R,ugm-3 (FIDAS),6.557,R,ugm-3 (Ref.eq)
13-01-2020,03:00,13.350,R,ugm-3 (FIDAS),6.533,R,ugm-3 (Ref.eq)
13-01-2020,04:00,11.150,R,ugm-3 (FIDAS),5.448,R,ugm-3 (Ref.eq)
13-01-2020,05:00,9.275,R,ugm-3 (FIDAS),4.835,R,ugm-3 (Ref.eq)
13-01-2020,06:00,8.625,R,ugm-3 (FIDAS),4.363,R,ugm-3 (Ref.eq)
13-01-2020,07:00,6.675,R,ugm-3 (FIDAS),3.609,R,ugm-3 (Ref.eq)
13-01-2020,08:00,7.375,R,ugm-3 (FIDAS),4.080,R,ugm-3 (Ref.eq)
13-01-2020,09:00,12.175,R,ugm-3 (FIDAS),6.274,R,ugm-3 (Ref.eq)
13-01-2020,10:00,12.975,R,ugm-3 (FIDAS),6.792,R,ugm-3 (Ref.eq)
13-01-2020,11:00,11.125,R,ugm-3 (FIDAS),6.321,R,ugm-3 (Ref.eq)
13-01-2020,12:00,10.300,R,ugm-3 (FIDAS),5.613,R,ugm-3 (Ref.eq)
13-01-2020,13:00,9.775,R,ugm-3 (FIDAS),5.448,R,ugm-3 (Ref.eq)
13-01-2020,14:00,8.650,R,ugm-3 (FIDAS),4.764,R,ugm-3 (Ref.eq)
13-01-2020,15:00,7.800,R,ugm-3 (FIDAS),4.127,R,ugm-3 (Ref.eq)
13-01-2020,16:00,5.125,R,ugm-3 (FIDAS),3.066,R,ugm-3 (Ref.eq)
13-01-2020,17:00,6.300,R,ugm-3 (FIDAS),3.255,R,ugm-3 (Ref.eq)
13-01-2020,18:00,6.325,R,ugm-3 (FIDAS),3.585,R,ugm-3 (Ref.eq)
13-01-2020,19:00,5.125,R,ugm-3 (FIDAS),2.925,R,ugm-3 (Ref.eq)
13-01-2020,20:00,3.900,R,ugm-3 (FIDAS),2.571,R,ugm-3 (Ref.eq)
13-01-2020,21:00,5.175,R,ugm-3 (FIDAS),3.160,R,ugm-3 (Ref.eq)
13-01-2020,22:00,3.850,R,ugm-3 (FIDAS),2.193,R,ugm-3 (Ref.eq)
13-01-2020,23:00,2.700,R,ugm-3 (FIDAS),1.580,R,ugm-3 (Ref.eq)
13-01-2020,24:00,4.525,R,ugm-3 (FIDAS),2.547,R,ugm-3 (Ref.eq)
14-01-2020,01:00,7.400,R,ugm-3 (FIDAS),3.986,R,ugm-3 (Ref.eq)
14-01-2020,02:00,10.200,R,ugm-3 (FIDAS),5.142,R,ugm-3 (Ref.eq)
14-01-2020,03:00,11.150,R,ugm-3 (FIDAS),5.920,R,ugm-3 (Ref.eq)
14-01-2020,04:00,18.400,R,ugm-3 (FIDAS),9.033,R,ugm-3 (Ref.eq)
14-01-2020,05:00,21.025,R,ugm-3 (FIDAS),11.085,R,ugm-3 (Ref.eq)
14-01-2020,06:00,25.200,R,ugm-3 (FIDAS),12.241,R,ugm-3 (Ref.eq)
14-01-2020,07:00,19.550,R,ugm-3 (FIDAS),9.929,R,ugm-3 (Ref.eq)
14-01-2020,08:00,15.800,R,ugm-3 (FIDAS),8.326,R,ugm-3 (Ref.eq)
14-01-2020,09:00,11.950,R,ugm-3 (FIDAS),7.099,R,ugm-3 (Ref.eq)
14-01-2020,10:00,17.875,R,ugm-3 (FIDAS),9.363,R,ugm-3 (Ref.eq)
14-01-2020,11:00,13.250,R,ugm-3 (FIDAS),7.359,R,ugm-3 (Ref.eq)
14-01-2020,12:00,6.675,R,ugm-3 (FIDAS),4.033,R,ugm-3 (Ref.eq)
14-01-2020,13:00,2.650,R,ugm-3 (FIDAS),1.745,R,ugm-3 (Ref.eq)
14-01-2020,14:00,1.400,R,ugm-3 (FIDAS),0.684,R,ugm-3 (Ref.eq)
14-01-2020,15:00,1.550,R,ugm-3 (FIDAS),0.920,R,ugm-3 (Ref.eq)
14-01-2020,16:00,1.675,R,ugm-3 (FIDAS),0.967,R,ugm-3 (Ref.eq)
14-01-2020,17:00,1.725,R,ugm-3 (FIDAS),1.085,R,ugm-3 (Ref.eq)
14-01-2020,18:00,1.925,R,ugm-3 (FIDAS),1.297,R,ugm-3 (Ref.eq)
14-01-2020,19:00,1.850,R,ugm-3 (FIDAS),1.061,R,ugm-3 (Ref.eq)
14-01-2020,20:00,3.375,R,ugm-3 (FIDAS),2.241,R,ugm-3 (Ref.eq)
14-01-2020,21:00,5.200,R,ugm-3 (FIDAS),3.302,R,ugm-3 (Ref.eq)
14-01-2020,22:00,5.275,R,ugm-3 (FIDAS),3.656,R,ugm-3 (Ref.eq)
14-01-2020,23:00,7.250,R,ugm-3 (FIDAS),4.741,R,ugm-3 (Ref.eq)
14-01-2020,24:00,7.350,R,ugm-3 (FIDAS),5.071,R,ugm-3 (Ref.eq)
15-01-2020,01:00,11.250,R,ugm-3 (FIDAS),6.887,R,ugm-3 (Ref.eq)
15-01-2020,02:00,11.075,R,ugm-3 (FIDAS),6.675,R,ugm-3 (Ref.eq)
15-01-2020,03:00,12.625,R,ugm-3 (FIDAS),7.759,R,ugm-3 (Ref.eq)
15-01-2020,04:00,6.225,R,ugm-3 (FIDAS),3.915,R,ugm-3 (Ref.eq)
15-01-2020,05:00,1.125,R,ugm-3 (FIDAS),0.354,R,ugm-3 (Ref.eq)
15-01-2020,06:00,1.125,R,ugm-3 (FIDAS),0.401,R,ugm-3 (Ref.eq)
15-01-2020,07:00,1.525,R,ugm-3 (FIDAS),0.542,R,ugm-3 (Ref.eq)
15-01-2020,08:00,2.350,R,ugm-3 (FIDAS),1.038,R,ugm-3 (Ref.eq)
15-01-2020,09:00,3.025,R,ugm-3 (FIDAS),1.486,R,ugm-3 (Ref.eq)
15-01-2020,10:00,3.450,R,ugm-3 (FIDAS),1.958,R,ugm-3 (Ref.eq)
15-01-2020,11:00,4.225,R,ugm-3 (FIDAS),1.816,R,ugm-3 (Ref.eq)
15-01-2020,12:00,4.975,R,ugm-3 (FIDAS),2.406,R,ugm-3 (Ref.eq)
15-01-2020,13:00,4.200,R,ugm-3 (FIDAS),2.170,R,ugm-3 (Ref.eq)
15-01-2020,14:00,5.175,R,ugm-3 (FIDAS),2.571,R,ugm-3 (Ref.eq)
15-01-2020,15:00,8.200,R,ugm-3 (FIDAS),3.892,R,ugm-3 (Ref.eq)
15-01-2020,16:00,10.250,R,ugm-3 (FIDAS),4.623,R,ugm-3 (Ref.eq)
15-01-2020,17:00,11.000,R,ugm-3 (FIDAS),5.472,R,ugm-3 (Ref.eq)
15-01-2020,18:00,12.450,R,ugm-3 (FIDAS),6.462,R,ugm-3 (Ref.eq)
15-01-2020,19:00,13.075,R,ugm-3 (FIDAS),6.344,R,ugm-3 (Ref.eq)
15-01-2020,20:00,13.775,R,ugm-3 (FIDAS),6.533,R,ugm-3 (Ref.eq)
15-01-2020,21:00,13.650,R,ugm-3 (FIDAS),6.604,R,ugm-3 (Ref.eq)
15-01-2020,22:00,14.300,R,ugm-3 (FIDAS),6.887,R,ugm-3 (Ref.eq)
15-01-2020,23:00,14.150,R,ugm-3 (FIDAS),6.580,R,ugm-3 (Ref.eq)
15-01-2020,24:00,14.000,R,ugm-3 (FIDAS),6.580,R,ugm-3 (Ref.eq)
16-01-2020,01:00,14.475,R,ugm-3 (FIDAS),6.816,R,ugm-3 (Ref.eq)
16-01-2020,02:00,16.475,R,ugm-3 (FIDAS),7.099,R,ugm-3 (Ref.eq)
16-01-2020,03:00,13.600,R,ugm-3 (FIDAS),6.297,R,ugm-3 (Ref.eq)
16-01-2020,04:00,12.900,R,ugm-3 (FIDAS),5.778,R,ugm-3 (Ref.eq)
16-01-2020,05:00,11.925,R,ugm-3 (FIDAS),5.566,R,ugm-3 (Ref.eq)
16-01-2020,06:00,13.050,R,ugm-3 (FIDAS),5.873,R,ugm-3 (Ref.eq)
16-01-2020,07:00,13.075,R,ugm-3 (FIDAS),6.014,R,ugm-3 (Ref.eq)
16-01-2020,08:00,12.675,R,ugm-3 (FIDAS),5.873,R,ugm-3 (Ref.eq)
16-01-2020,09:00,11.100,R,ugm-3 (FIDAS),5.566,R,ugm-3 (Ref.eq)
16-01-2020,10:00,9.075,R,ugm-3 (FIDAS),4.693,R,ugm-3 (Ref.eq)
16-01-2020,11:00,7.950,R,ugm-3 (FIDAS),4.505,R,ugm-3 (Ref.eq)
16-01-2020,12:00,7.675,R,ugm-3 (FIDAS),4.481,R,ugm-3 (Ref.eq)
16-01-2020,13:00,8.075,R,ugm-3 (FIDAS),5.118,R,ugm-3 (Ref.eq)
16-01-2020,14:00,10.675,R,ugm-3 (FIDAS),6.344,R,ugm-3 (Ref.eq)
16-01-2020,15:00,12.875,R,ugm-3 (FIDAS),7.524,R,ugm-3 (Ref.eq)
16-01-2020,16:00,12.125,R,ugm-3 (FIDAS),7.594,R,ugm-3 (Ref.eq)
16-01-2020,17:00,11.825,R,ugm-3 (FIDAS),7.193,R,ugm-3 (Ref.eq)
16-01-2020,18:00,11.600,R,ugm-3 (FIDAS),7.217,R,ugm-3 (Ref.eq)